AE6EO Weather Reports


Display with metric or nautical units.
time (UTC)temp
F
wind
direction
speed
MPH
gust
MPH
rain 1hr
in
rain 24hr
in
rain mn
in
humidity
%
barometer
mb
20260506221515 75 1 4.0 8.0 0.00 0.00 0.00 53 1019.1
20260506220517 75 359 4.0 9.0 0.00 0.00 0.00 53 1019.3
20260506215516 74 354 2.0 8.0 0.00 0.00 0.00 53 1019.4
20260506214515 74 10 3.0 6.0 0.00 0.00 0.00 54 1019.5
20260506213517 73 37 4.0 9.0 0.00 0.00 0.00 54 1019.6
20260506212516 72 4 3.0 6.0 0.00 0.00 0.00 56 1019.7
20260506211515 73 18 5.0 11.0 0.00 0.00 0.00 55 1019.9
20260506210518 72 19 3.0 8.0 0.00 0.00 0.00 57 1019.9
20260506205536 72 319 3.0 8.0 0.00 0.00 0.00 58 1020.0
20260506204515 72 19 4.0 9.0 0.00 0.00 0.00 58 1020.1
20260506203515 71 51 3.0 9.0 0.00 0.00 0.00 57 1020.2
20260506202517 71 312 2.0 4.0 0.00 0.00 0.00 58 1020.3
20260506201536 71 300 2.0 4.0 0.00 0.00 0.00 57 1020.5
20260506200515 71 329 2.0 7.0 0.00 0.00 0.00 58 1020.6
20260506195516 70 39 3.0 9.0 0.00 0.00 0.00 58 1020.7
20260506194517 69 7 4.0 8.0 0.00 0.00 0.00 61 1020.7
20260506193535 68 17 4.0 9.0 0.00 0.00 0.00 63 1020.9
20260506192517 68 351 2.0 5.0 0.00 0.00 0.00 63 1020.9
20260506191536 67 344 3.0 7.0 0.00 0.00 0.00 64 1021.0
20260506190516 67 56 3.0 7.0 0.00 0.00 0.00 64 1021.1
20260506185515 67 337 3.0 7.0 0.00 0.00 0.00 64 1021.2
20260506184517 67 25 3.0 8.0 0.00 0.00 0.00 65 1021.2
20260506183516 66 51 3.0 6.0 0.00 0.00 0.00 65 1021.3
20260506182535 66 2 2.0 4.0 0.00 0.00 0.00 65 1021.4
20260506181537 65 8 2.0 4.0 0.00 0.00 0.00 68 1021.4
20260506180516 64 16 2.0 4.0 0.00 0.00 0.00 69 1021.4
20260506175515 63 329 2.0 5.0 0.00 0.00 0.00 70 1021.4
20260506174517 63 90 2.0 4.0 0.00 0.00 0.00 70 1021.5
20260506173516 63 321 1.0 3.0 0.00 0.00 0.00 72 1021.5
20260506172515 62 311 1.0 3.0 0.00 0.00 0.00 72 1021.6
20260506171515 62 280 2.0 4.0 0.00 0.00 0.00 73 1021.6
20260506170536 61 336 1.0 3.0 0.00 0.00 0.00 75 1021.6
20260506165516 60 291 2.0 4.0 0.00 0.00 0.00 75 1021.7
20260506164515 60 2 2.0 4.0 0.00 0.00 0.00 76 1021.7
20260506163517 60 0 1.0 4.0 0.00 0.00 0.00 77 1021.7
20260506162515 59 313 0.0 1.0 0.00 0.00 0.00 79 1021.6
20260506161515 59 305 1.0 3.0 0.00 0.00 0.00 79 1021.7
20260506160520 59 331 1.0 2.0 0.00 0.00 0.00 80 1021.7
20260506155517 58 321 1.0 2.0 0.00 0.00 0.00 81 1021.6
20260506154515 58 328 1.0 3.0 0.00 0.00 0.00 81 1021.6
20260506153517 58 347 1.0 2.0 0.00 0.00 0.00 82 1021.6
20260506152517 57 323 1.0 3.0 0.00 0.00 0.00 82 1021.6
20260506151521 57 333 1.0 2.0 0.00 0.00 0.00 82 1021.5
20260506150515 57 261 1.0 2.0 0.00 0.00 0.00 82 1021.6
20260506145517 57 222 0.0 1.0 0.00 0.00 0.00 83 1021.6
20260506144516 57 221 0.0 1.0 0.00 0.00 0.00 83 1021.5
20260506143535 56 229 0.0 1.0 0.00 0.00 0.00 84 1021.5
20260506142517 56 225 0.0 1.0 0.00 0.00 0.00 84 1021.4
20260506141516 56 228 0.0 1.0 0.00 0.00 0.00 85 1021.3
20260506140515 56 228 0.0 1.0 0.00 0.00 0.00 85 1021.3
20260506135517 56 0.0 0.0 0.00 0.00 0.00 86 1021.1
20260506134516 55 331 0.0 1.0 0.00 0.00 0.00 86 1020.9
20260506133515 55 332 0.0 1.0 0.00 0.00 0.00 87 1020.8
20260506132515 55 332 0.0 1.0 0.00 0.00 0.00 88 1020.7
20260506131517 55 0.0 0.0 0.00 0.00 0.00 88 1020.7
20260506130556 55 0.0 0.0 0.00 0.00 0.00 88 1020.6
20260506125515 55 0.0 0.0 0.00 0.00 0.00 88 1020.5
20260506124517 54 0.0 0.0 0.00 0.00 0.00 88 1020.4
20260506123516 54 0.0 0.0 0.00 0.00 0.00 88 1020.4
20260506122515 54 0.0 0.0 0.00 0.00 0.00 88 1020.4
20260506121537 54 0.0 0.0 0.00 0.00 0.00 88 1020.4
20260506120517 54 0.0 0.0 0.00 0.00 0.00 88 1020.3
20260506115536 54 0.0 0.0 0.00 0.00 0.00 88 1020.2
20260506114538 54 0.0 0.0 0.00 0.00 0.00 88 1020.2
20260506113536 54 0.0 0.0 0.00 0.00 0.00 87 1020.1
20260506112515 54 0.0 0.0 0.00 0.01 0.00 86 1020.0
20260506111515 54 0.0 0.0 0.00 0.01 0.00 85 1020.0
20260506110520 55 0.0 0.0 0.00 0.01 0.00 85 1020.0
20260506105516 55 0.0 0.0 0.00 0.01 0.00 84 1019.9
20260506104535 56 0.0 0.0 0.00 0.01 0.00 83 1019.8
20260506103557 56 0.0 0.0 0.00 0.01 0.00 82 1019.8
20260506102536 56 0.0 0.0 0.00 0.01 0.00 82 1019.8
20260506101535 57 0.0 0.0 0.00 0.01 0.00 81 1019.8
20260506100517 57 332 0.0 1.0 0.00 0.01 0.00 81 1019.9
20260506095516 57 330 0.0 1.0 0.00 0.01 0.00 81 1019.8
20260506094515 58 325 0.0 1.0 0.00 0.01 0.00 82 1019.8
20260506093534 58 0.0 0.0 0.00 0.01 0.00 82 1019.8
20260506092517 58 0.0 0.0 0.00 0.01 0.00 82 1019.9
20260506091516 58 308 0.0 1.0 0.00 0.01 0.00 81 1019.8
20260506090535 58 308 0.0 1.0 0.00 0.01 0.00 81 1019.7
20260506085517 58 0.0 0.0 0.00 0.01 0.00 81 1019.7
20260506084516 58 0.0 0.0 0.00 0.01 0.00 81 1019.8
20260506083515 58 311 1.0 2.0 0.00 0.01 0.00 80 1019.8
20260506082537 58 312 0.0 2.0 0.00 0.01 0.00 80 1019.8
20260506081557 58 316 0.0 2.0 0.00 0.01 0.00 80 1019.9
20260506080516 58 319 1.0 2.0 0.00 0.01 0.00 80 1019.8
20260506073515 58 327 0.0 2.0 0.00 0.01 0.00 80 1019.6
20260506072515 58 319 0.0 2.0 0.00 0.01 0.00 79 1019.6
20260506071517 58 0.0 0.0 0.00 0.01 0.00 79 1019.5
20260506070516 58 319 0.0 1.0 0.00 0.01 0.00 79 1019.4
20260506062516 59 309 0.0 1.0 0.00 0.01 0.01 76 1019.1
20260506061515 59 314 1.0 3.0 0.00 0.01 0.01 76 1019.1
20260506060516 59 313 1.0 3.0 0.00 0.01 0.01 75 1019.0
20260506050517 59 277 0.0 2.0 0.00 0.01 0.01 75 1018.6
20260506044515 59 279 0.0 3.0 0.00 0.01 0.01 75 1018.4
20260506043517 59 302 1.0 3.0 0.00 0.01 0.01 75 1018.3
20260506042516 59 284 1.0 5.0 0.00 0.01 0.01 75 1018.3
20260506041515 59 278 1.0 4.0 0.00 0.01 0.01 75 1018.1
20260506040517 60 273 1.0 4.0 0.00 0.01 0.01 74 1018.0
20260506035517 60 284 1.0 2.0 0.00 0.01 0.01 74 1017.8
20260506034515 60 253 1.0 3.0 0.00 0.01 0.01 74 1017.7
20260506033515 60 247 1.0 3.0 0.00 0.01 0.01 73 1017.5
20260506032517 60 222 0.0 2.0 0.00 0.01 0.01 72 1017.4
20260506031516 60 255 1.0 3.0 0.00 0.01 0.01 72 1017.3
20260506030515 60 263 1.0 2.0 0.00 0.01 0.01 71 1017.2
20260506025515 60 216 1.0 3.0 0.00 0.01 0.01 71 1017.1
20260506024536 60 264 1.0 3.0 0.00 0.01 0.01 71 1017.0
20260506023516 61 258 1.0 3.0 0.00 0.01 0.01 71 1016.9
20260506022517 61 231 1.0 4.0 0.00 0.01 0.01 71 1016.9
20260506021517 61 261 1.0 4.0 0.00 0.01 0.01 70 1016.8
20260506020516 61 246 1.0 4.0 0.00 0.01 0.01 70 1016.8
20260506015535 61 235 1.0 5.0 0.00 0.01 0.01 70 1016.9
20260506014517 61 210 1.0 4.0 0.00 0.01 0.01 70 1016.9
20260506013516 61 237 1.0 7.0 0.00 0.01 0.01 70 1016.9
20260506012515 61 212 1.0 2.0 0.00 0.01 0.01 70 1016.8
20260506011517 61 211 1.0 4.0 0.00 0.01 0.01 71 1016.8
20260506010516 61 207 1.0 5.0 0.00 0.01 0.01 70 1016.8
20260506005515 62 215 1.0 5.0 0.00 0.01 0.01 70 1016.7
20260506004517 62 209 1.0 4.0 0.00 0.01 0.01 70 1016.8
20260506003516 62 203 2.0 7.0 0.00 0.01 0.01 70 1016.7
20260506002516 62 238 1.0 4.0 0.00 0.01 0.01 70 1016.6
20260506001518 62 268 1.0 4.0 0.00 0.01 0.01 69 1016.4
20260505235516 63 230 2.0 4.0 0.00 0.01 0.01 68 1016.3
20260505234515 63 202 1.0 4.0 0.00 0.01 0.01 66 1016.3
20260505233516 64 198 1.0 2.0 0.00 0.01 0.01 66 1016.3
20260505232516 64 182 1.0 4.0 0.00 0.01 0.01 66 1016.4
20260505231515 64 217 1.0 3.0 0.00 0.01 0.01 66 1016.4
20260505230540 64 194 1.0 4.0 0.00 0.01 0.01 66 1016.4
20260505225516 64 168 1.0 5.0 0.00 0.01 0.01 65 1016.4
20260505224516 64 270 1.0 2.0 0.00 0.01 0.01 64 1016.4
20260505223517 64 286 1.0 3.0 0.00 0.01 0.01 64 1016.5
20260505222517 64 322 0.0 2.0 0.00 0.01 0.01 65 1016.6